Дата Пункты Температура Давл., мм. Влажн., % Ветер Погодные явления
Воздуха Воды Направл. Скорость
07.12.14 07:00 Одесса -2.0 3.0 763 100 С-В 6 08 часов
07.12.14 04:00 Одесса -2.0 3.0 763 100 С-В 5 05 часов
07.12.14 01:00 Одесса -2.0 3.0 764 96 С-В 5 02 часа
06.12.14 10:00 Одесса -3.0 3.0 765 98 С-В 7 23 часа
06.12.14 07:00 Одесса -1.0 3.0 765 99 С-В 6 20 часов
06.12.14 04:00 Одесса -1.0 3.0 766 99 В 6 17 часов
06.12.14 07:00 Одесса -1.0 3.0 767 93 В 6 08 часов
06.12.14 04:00 Одесса -3.0 2.0 767 96 С-В 7 05 часов
06.12.14 01:00 Одесса -2.0 2.0 768 89 С-В 6 02 часа
05.12.14 10:00 Одесса -1.0 3.0 768 83 С-В 1 23 часа
05.12.14 07:00 Одесса -1.0 3.0 768 77 С-В 6 20 часов
05.12.14 04:00 Одесса -1.0 2.0 768 66 С 4 17 часов
05.12.14 01:00 Одесса -1.0 2.0 768 74 С 3 14 часов
05.12.14 10:00 Одесса -2.0 3.0 768 90 С 4 11 часов
05.12.14 07:00 Одесса -3.0 3.0 767 96 С 4 08 часов
05.12.14 04:00 Одесса -3.0 3.0 767 98 С 3 05 часов
05.12.14 01:00 Одесса -3.0 3.0 767 98 С 3 02 часа
04.12.14 10:00 Одесса -3.0 3.0 767 99 С 3 23 часа
04.12.14 07:00 Одесса -3.0 3.0 767 98 С 4 20 часов
04.12.14 04:00 Одесса -3.0 3.0 767 96 С 4 17 часов
Количество строк
351 352 353 354 355 356 357 358 359 360
Page 351 of 382